Total_Precipitation_Accumulation
1.65 1.66 1.58 1.51 1.38 1.27 1.19 1.16 1.09 1.03 1.00 0.96 0.93 0.89 0.85 0.83 0.80 0.78 0.77 0.75 0.82 0.94 1.02 1.07 1.12 1.15 1.21 1.25 1.30 1.38 1.50 1.60 1.70 1.67 1.52 1.47 1.46 1.43 1.37 1.18 1.10 1.07 1.10
1.23 1.19 1.18 1.12 1.04 0.99 0.97 0.95 0.97 0.93 0.88 0.88 0.86 0.85 0.84 0.85 0.85 0.81 0.75 0.72 0.76 0.85 0.91 0.95 0.96 0.96 0.99 1.06 1.14 1.17 1.25 1.36 1.49 1.58 1.50 1.38 1.35 1.34 1.28 1.20 1.04 0.94 0.93
1.03 1.00 0.97 1.00 0.97 0.94 0.95 0.96 0.95 0.91 0.86 0.82 0.77 0.79 0.84 0.84 0.81 0.78 0.74 0.72 0.70 0.74 0.77 0.78 0.80 0.85 0.85 0.86 0.90 0.96 1.02 1.08 1.21 1.26 1.27 1.22 1.18 1.13 1.16 1.12 1.02 1.02 0.88
0.99 0.92 0.83 0.79 0.81 0.84 0.86 0.87 0.85 0.81 0.80 0.80 0.78 0.75 0.74 0.69 0.61 0.56 0.56 0.57 0.56 0.57 0.59 0.61 0.68 0.75 0.74 0.75 0.74 0.76 0.82 0.91 1.01 1.08 1.08 1.08 1.06 1.00 1.02 1.06 1.03 0.96 0.87
1.08 1.02 0.93 0.84 0.82 0.84 0.83 0.81 0.77 0.73 0.68 0.65 0.63 0.60 0.51 0.43 0.39 0.38 0.41 0.43 0.45 0.46 0.48 0.47 0.49 0.57 0.63 0.61 0.58 0.64 0.75 0.85 0.90 0.95 0.92 0.88 0.88 0.92 0.93 0.89 0.86 0.83 0.79
1.17 1.24 1.25 1.18 1.09 1.05 0.96 0.85 0.81 0.77 0.67 0.57 0.52 0.51 0.44 0.35 0.36 0.33 0.35 0.41 0.45 0.46 0.47 0.48 0.45 0.46 0.46 0.45 0.49 0.61 0.75 0.78 0.82 0.88 0.87 0.87 0.86 0.85 0.85 0.85 0.87 0.89 0.90
1.24 1.27 1.24 1.23 1.20 1.12 1.00 0.86 0.81 0.78 0.74 0.70 0.60 0.54 0.53 0.47 0.40 0.35 0.37 0.44 0.49 0.47 0.46 0.46 0.40 0.38 0.42 0.43 0.47 0.54 0.61 0.63 0.70 0.82 0.91 0.89 0.90 0.92 0.94 0.89 0.94 0.98 0.94
1.27 1.26 1.22 1.12 1.06 0.97 0.90 0.85 0.77 0.72 0.72 0.71 0.66 0.61 0.53 0.42 0.32 0.28 0.28 0.37 0.46 0.46 0.45 0.46 0.48 0.47 0.44 0.46 0.46 0.50 0.59 0.65 0.66 0.69 0.83 0.82 0.79 0.84 0.88 0.92 0.96 0.97 0.94
1.26 1.17 1.07 0.99 0.95 0.87 0.83 0.76 0.68 0.61 0.60 0.57 0.54 0.51 0.49 0.39 0.24 0.19 0.21 0.36 0.46 0.43 0.37 0.36 0.39 0.44 0.45 0.43 0.47 0.58 0.65 0.70 0.59 0.60 0.68 0.75 0.78 0.82 0.80 0.84 1.00 1.13 1.07
1.02 0.85 0.77 0.79 0.79 0.75 0.70 0.62 0.57 0.56 0.55 0.48 0.43 0.43 0.43 0.39 0.26 0.21 0.23 0.35 0.44 0.41 0.38 0.36 0.36 0.37 0.37 0.38 0.47 0.61 0.71 0.71 0.63 0.66 0.80 0.90 0.88 0.95 0.90 0.90 1.11 1.18 1.11
0.87 0.74 0.69 0.68 0.62 0.60 0.58 0.57 0.54 0.51 0.54 0.53 0.50 0.46 0.39 0.31 0.22 0.18 0.20 0.27 0.37 0.41 0.41 0.43 0.39 0.31 0.28 0.31 0.41 0.52 0.61 0.59 0.69 0.86 0.94 0.96 0.97 1.00 0.95 0.89 1.00 1.08 1.15
0.81 0.76 0.71 0.62 0.51 0.52 0.61 0.59 0.55 0.58 0.62 0.60 0.56 0.50 0.38 0.30 0.19 0.16 0.19 0.23 0.27 0.37 0.45 0.43 0.39 0.31 0.29 0.33 0.40 0.48 0.52 0.60 0.79 0.96 1.02 1.00 0.92 0.89 0.88 0.83 0.89 0.92 0.97
0.81 0.79 0.67 0.55 0.56 0.57 0.60 0.57 0.50 0.49 0.46 0.43 0.42 0.42 0.37 0.30 0.23 0.18 0.21 0.23 0.25 0.29 0.34 0.31 0.29 0.31 0.34 0.46 0.49 0.48 0.57 0.78 0.90 0.95 1.02 1.01 0.91 0.82 0.77 0.72 0.76 0.85 0.86
0.88 0.79 0.63 0.53 0.51 0.50 0.49 0.42 0.37 0.37 0.36 0.35 0.33 0.32 0.33 0.34 0.29 0.25 0.25 0.26 0.27 0.29 0.31 0.31 0.36 0.43 0.47 0.55 0.63 0.72 0.77 0.83 0.83 0.90 0.94 0.90 0.79 0.73 0.75 0.73 0.77 0.84 0.89
0.86 0.72 0.58 0.47 0.43 0.41 0.34 0.27 0.22 0.21 0.19 0.23 0.25 0.23 0.27 0.27 0.23 0.23 0.24 0.23 0.24 0.24 0.25 0.39 0.59 0.65 0.71 0.76 0.81 0.86 0.92 0.86 0.81 0.81 0.83 0.82 0.77 0.74 0.72 0.68 0.73 0.77 0.82
0.77 0.58 0.47 0.41 0.36 0.30 0.27 0.26 0.18 0.13 0.11 0.09 0.11 0.12 0.13 0.15 0.15 0.16 0.18 0.21 0.22 0.25 0.30 0.51 0.63 0.67 0.73 0.74 0.74 0.79 0.85 0.86 0.79 0.75 0.75 0.75 0.74 0.71 0.72 0.66 0.65 0.74 0.80
0.60 0.45 0.34 0.31 0.31 0.29 0.27 0.31 0.32 0.19 0.11 0.09 0.10 0.11 0.11 0.12 0.12 0.13 0.17 0.22 0.27 0.35 0.46 0.59 0.62 0.66 0.69 0.65 0.65 0.71 0.75 0.74 0.67 0.64 0.63 0.61 0.60 0.60 0.65 0.67 0.63 0.63 0.63
0.33 0.24 0.20 0.24 0.23 0.22 0.20 0.22 0.25 0.30 0.30 0.23 0.16 0.12 0.11 0.12 0.14 0.16 0.22 0.28 0.40 0.49 0.56 0.59 0.60 0.61 0.63 0.62 0.61 0.61 0.59 0.53 0.48 0.50 0.54 0.54 0.54 0.56 0.58 0.59 0.54 0.50 0.53
0.20 0.18 0.16 0.15 0.14 0.14 0.13 0.14 0.15 0.20 0.29 0.30 0.22 0.15 0.13 0.18 0.21 0.25 0.30 0.38 0.47 0.51 0.50 0.52 0.53 0.52 0.53 0.58 0.57 0.51 0.47 0.43 0.39 0.39 0.43 0.47 0.49 0.48 0.50 0.48 0.42 0.36 0.39
0.13 0.11 0.12 0.12 0.12 0.11 0.11 0.12 0.14 0.17 0.20 0.23 0.22 0.16 0.16 0.26 0.36 0.39 0.38 0.39 0.40 0.40 0.41 0.43 0.42 0.41 0.43 0.45 0.43 0.40 0.38 0.38 0.35 0.33 0.34 0.34 0.36 0.39 0.40 0.38 0.35 0.33 0.35
0.07 0.06 0.06 0.07 0.10 0.10 0.09 0.10 0.11 0.13 0.16 0.17 0.15 0.12 0.17 0.27 0.37 0.38 0.40 0.39 0.37 0.38 0.39 0.38 0.35 0.33 0.33 0.34 0.34 0.35 0.34 0.34 0.33 0.34 0.32 0.29 0.29 0.29 0.28 0.27 0.26 0.24 0.23
0.06 0.05 0.05 0.07 0.07 0.07 0.08 0.09 0.10 0.12 0.13 0.13 0.14 0.12 0.18 0.26 0.34 0.39 0.42 0.39 0.36 0.34 0.33 0.33 0.31 0.30 0.29 0.28 0.29 0.27 0.26 0.27 0.28 0.31 0.30 0.27 0.25 0.24 0.23 0.21 0.21 0.23 0.22
0.05 0.04 0.04 0.05 0.05 0.05 0.06 0.07 0.08 0.08 0.09 0.10 0.12 0.15 0.19 0.28 0.34 0.38 0.38 0.33 0.27 0.24 0.26 0.28 0.27 0.25 0.23 0.21 0.19 0.18 0.17 0.17 0.18 0.23 0.26 0.25 0.25 0.21 0.19 0.19 0.17 0.21 0.21
0.04 0.04 0.04 0.03 0.03 0.04 0.05 0.05 0.06 0.06 0.07 0.09 0.12 0.14 0.17 0.23 0.27 0.29 0.30 0.25 0.21 0.19 0.20 0.20 0.21 0.18 0.15 0.15 0.14 0.13 0.13 0.12 0.11 0.13 0.16 0.19 0.21 0.18 0.16 0.16 0.16 0.18 0.21
0.02 0.03 0.03 0.02 0.03 0.04 0.03 0.03 0.04 0.05 0.07 0.09 0.12 0.12 0.12 0.14 0.16 0.18 0.20 0.22 0.20 0.18 0.16 0.15 0.14 0.12 0.11 0.10 0.10 0.09 0.11 0.10 0.09 0.08 0.10 0.11 0.13 0.14 0.16 0.19 0.19 0.20 0.22
0.02 0.02 0.02 0.02 0.03 0.03 0.02 0.03 0.04 0.05 0.06 0.08 0.09 0.09 0.10 0.11 0.12 0.13 0.14 0.15 0.15 0.15 0.14 0.14 0.12 0.10 0.11 0.12 0.11 0.11 0.10 0.08 0.07 0.08 0.09 0.10 0.12 0.13 0.15 0.17 0.19 0.22 0.25